| time (UTC) | temp C | wind direction | speed KPH | gust KPH | rain 1hr cm | rain 24hr cm | rain mn cm | humidity % | barometer mb |
| 20260504160409 | 14 | 355 | 6.4 | 8.0 | 0.00 | 0.00 | 0.00 | 74 | 1010.7 |
| 20260504150844 | 14 | 52 | 1.6 | 4.8 | 0.00 | 0.00 | 0.00 | 72 | 1010.3 |
| 20260504150334 | 14 | 127 | 1.6 | 3.2 | 0.00 | 0.00 | 0.00 | 72 | 1010.2 |
| 20260504141319 | 12 | 42 | 1.6 | 3.2 | 0.00 | 0.00 | 0.00 | 83 | 1009.9 |
| 20260504141053 | 12 | 359 | 1.6 | 3.2 | 0.00 | 0.00 | 0.00 | 83 | 1009.9 |
| 20260504140310 | 12 | 353 | 1.6 | 3.2 | 0.00 | 0.00 | 0.00 | 84 | 1009.8 |
| 20260504130747 | 11 | 233 | 3.2 | 4.8 | 0.00 | 0.00 | 0.00 | 85 | 1009.2 |
| 20260504130234 | 11 | 248 | 3.2 | 6.4 | 0.00 | 0.00 | 0.00 | 85 | 1009.1 |
| 20260504120202 | 11 | 256 | 0.0 | 1.6 | 0.00 | 0.00 | 0.00 | 84 | 1008.8 |
| 20260504110614 | 12 | 256 | 0.0 | 0.0 | 0.00 | 0.00 | 0.00 | 83 | 1008.7 |
| 20260504100533 | 13 | 256 | 0.0 | 1.6 | 0.00 | 0.00 | 0.00 | 79 | 1008.5 |
| 20260504081939 | 15 | 233 | 1.6 | 3.2 | 0.00 | 0.00 | 0.00 | 74 | 1008.6 |
| 20260504081439 | 15 | 228 | 0.0 | 1.6 | 0.00 | 0.00 | 0.00 | 73 | 1008.6 |
| 20260504080937 | 15 | 219 | 0.0 | 3.2 | 0.00 | 0.00 | 0.00 | 72 | 1008.6 |
| 20260504080431 | 15 | 217 | 1.6 | 3.2 | 0.00 | 0.00 | 0.00 | 73 | 1008.6 |
| 20260504070347 | 16 | 359 | 1.6 | 3.2 | 0.00 | 0.00 | 0.00 | 68 | 1008.5 |
| 20260504070119 | 16 | 359 | 1.6 | 3.2 | 0.00 | 0.00 | 0.00 | 71 | 1008.5 |
| 20260504050317 | 19 | 217 | 3.2 | 6.4 | 0.00 | 0.00 | 0.00 | 57 | 1008.6 |
| 20260504045819 | 19 | 212 | 3.2 | 6.4 | 0.00 | 0.00 | 0.00 | 58 | 1008.6 |
| 20260504045335 | 19 | 226 | 3.2 | 4.8 | 0.00 | 0.00 | 0.00 | 58 | 1008.6 |
| 20260504044321 | 20 | 9 | 1.6 | 4.8 | 0.00 | 0.00 | 0.00 | 56 | 1008.3 |
| 20260504043817 | 20 | 9 | 0.0 | 3.2 | 0.00 | 0.00 | 0.00 | 55 | 1008.3 |
| 20260504043320 | 20 | 9 | 0.0 | 3.2 | 0.00 | 0.00 | 0.00 | 52 | 1008.2 |
| 20260504043051 | 21 | 9 | 1.6 | 3.2 | 0.00 | 0.00 | 0.00 | 51 | 1008.2 |
| 20260504042306 | 21 | 9 | 1.6 | 3.2 | 0.00 | 0.00 | 0.00 | 54 | 1008.2 |
| 20260504041802 | 21 | 9 | 1.6 | 3.2 | 0.00 | 0.00 | 0.00 | 51 | 1008.2 |
| 20260504041300 | 22 | 9 | 1.6 | 3.2 | 0.00 | 0.00 | 0.00 | 43 | 1008.2 |
| 20260504041043 | 22 | 9 | 1.6 | 3.2 | 0.00 | 0.00 | 0.00 | 41 | 1008.2 |
| 20260504040303 | 22 | 9 | 1.6 | 3.2 | 0.00 | 0.00 | 0.00 | 41 | 1008.1 |
| 20260504035802 | 22 | 9 | 1.6 | 3.2 | 0.00 | 0.00 | 0.00 | 42 | 1008.1 |
| 20260504035304 | 23 | 31 | 1.6 | 3.2 | 0.00 | 0.00 | 0.00 | 40 | 1008.1 |
| 20260504034802 | 23 | 58 | 3.2 | 6.4 | 0.00 | 0.00 | 0.00 | 37 | 1008.0 |
| 20260504034300 | 23 | 65 | 4.8 | 8.0 | 0.00 | 0.00 | 0.00 | 35 | 1008.0 |
| 20260504033805 | 23 | 57 | 4.8 | 8.0 | 0.00 | 0.00 | 0.00 | 35 | 1008.0 |
| 20260504033304 | 23 | 78 | 3.2 | 8.0 | 0.00 | 0.00 | 0.00 | 34 | 1007.8 |
| 20260504032806 | 24 | 71 | 3.2 | 8.0 | 0.00 | 0.00 | 0.00 | 35 | 1007.8 |
| 20260504032304 | 24 | 79 | 3.2 | 6.4 | 0.00 | 0.00 | 0.00 | 33 | 1007.8 |
| 20260504031801 | 24 | 59 | 1.6 | 4.8 | 0.00 | 0.00 | 0.00 | 35 | 1007.7 |
| 20260504031300 | 25 | 13 | 1.6 | 6.4 | 0.00 | 0.00 | 0.00 | 38 | 1007.7 |
| 20260504030802 | 25 | 111 | 3.2 | 9.7 | 0.00 | 0.00 | 0.00 | 37 | 1007.7 |
| 20260504030302 | 25 | 58 | 4.8 | 9.7 | 0.00 | 0.00 | 0.00 | 33 | 1007.8 |
| 20260504030053 | 25 | 46 | 4.8 | 8.0 | 0.00 | 0.00 | 0.00 | 31 | 1007.9 |
| 20260504025304 | 26 | 99 | 6.4 | 8.0 | 0.00 | 0.00 | 0.00 | 32 | 1007.9 |
| 20260504025116 | 26 | 57 | 4.8 | 8.0 | 0.00 | 0.00 | 0.00 | 31 | 1007.8 |
| 20260504023801 | 26 | 69 | 4.8 | 6.4 | 0.00 | 0.00 | 0.00 | 34 | 1007.8 |
| 20260504023302 | 26 | 4 | 4.8 | 8.0 | 0.00 | 0.00 | 0.00 | 34 | 1007.8 |
| 20260504023049 | 26 | 4 | 4.8 | 8.0 | 0.00 | 0.00 | 0.00 | 31 | 1007.8 |
| 20260504022301 | 26 | 350 | 4.8 | 11.3 | 0.00 | 0.00 | 0.00 | 33 | 1007.8 |
| 20260504021749 | 26 | 65 | 4.8 | 11.3 | 0.00 | 0.00 | 0.00 | 30 | 1007.8 |
| 20260504021523 | 26 | 343 | 8.0 | 16.1 | 0.00 | 0.00 | 0.00 | 33 | 1007.8 |
| 20260504020736 | 26 | 50 | 8.0 | 16.1 | 0.00 | 0.00 | 0.00 | 29 | 1007.8 |
| 20260504020234 | 26 | 59 | 6.4 | 11.3 | 0.00 | 0.00 | 0.00 | 29 | 1007.8 |
| 20260504015732 | 26 | 62 | 3.2 | 9.7 | 0.00 | 0.00 | 0.00 | 35 | 1007.8 |
| 20260504015234 | 27 | 345 | 4.8 | 8.0 | 0.00 | 0.00 | 0.00 | 34 | 1007.8 |
| 20260504014735 | 27 | 350 | 6.4 | 11.3 | 0.00 | 0.00 | 0.00 | 30 | 1008.0 |
| 20260504014514 | 27 | 22 | 6.4 | 14.5 | 0.00 | 0.00 | 0.00 | 28 | 1008.0 |
| 20260504013731 | 27 | 57 | 9.7 | 19.3 | 0.00 | 0.00 | 0.00 | 28 | 1008.0 |
| 20260504013516 | 27 | 48 | 11.3 | 19.3 | 0.00 | 0.00 | 0.00 | 28 | 1008.1 |
| 20260504012730 | 27 | 78 | 8.0 | 19.3 | 0.00 | 0.00 | 0.00 | 27 | 1008.1 |
| 20260504012508 | 27 | 43 | 6.4 | 19.3 | 0.00 | 0.00 | 0.00 | 30 | 1008.1 |
| 20260504011705 | 27 | 30 | 6.4 | 16.1 | 0.00 | 0.00 | 0.00 | 29 | 1008.2 |
| 20260504011441 | 27 | 47 | 4.8 | 9.7 | 0.00 | 0.00 | 0.00 | 30 | 1008.2 |
| 20260504010644 | 27 | 53 | 6.4 | 11.3 | 0.00 | 0.00 | 0.00 | 31 | 1008.2 |
| 20260504010145 | 27 | 359 | 8.0 | 16.1 | 0.00 | 0.00 | 0.00 | 31 | 1008.2 |
| 20260504005705 | 27 | 36 | 9.7 | 16.1 | 0.00 | 0.00 | 0.00 | 30 | 1008.2 |
| 20260504004640 | 27 | 359 | 6.4 | 11.3 | 0.00 | 0.00 | 0.00 | 29 | 1008.3 |
| 20260504004431 | 27 | 27 | 6.4 | 11.3 | 0.00 | 0.00 | 0.00 | 30 | 1008.3 |
| 20260504003637 | 27 | 22 | 6.4 | 14.5 | 0.00 | 0.00 | 0.00 | 28 | 1008.3 |
| 20260504003137 | 27 | 55 | 6.4 | 14.5 | 0.00 | 0.00 | 0.00 | 29 | 1008.4 |
| 20260504002638 | 27 | 21 | 4.8 | 8.0 | 0.00 | 0.00 | 0.00 | 31 | 1008.4 |
| 20260504002135 | 27 | 14 | 6.4 | 9.7 | 0.00 | 0.00 | 0.00 | 32 | 1008.4 |
| 20260504001631 | 27 | 34 | 8.0 | 9.7 | 0.00 | 0.00 | 0.00 | 32 | 1008.5 |
| 20260504001130 | 27 | 42 | 8.0 | 9.7 | 0.00 | 0.00 | 0.00 | 31 | 1008.5 |
| 20260504000915 | 27 | 344 | 8.0 | 11.3 | 0.00 | 0.00 | 0.00 | 31 | 1008.5 |
| 20260504000129 | 27 | 359 | 8.0 | 11.3 | 0.00 | 0.00 | 0.00 | 31 | 1008.7 |
| 20260503235918 | 27 | 336 | 8.0 | 11.3 | 0.00 | 0.00 | 0.00 | 29 | 1008.7 |
| 20260503235129 | 27 | 359 | 8.0 | 12.9 | 0.00 | 0.00 | 0.00 | 31 | 1008.7 |
| 20260503234919 | 27 | 340 | 8.0 | 16.1 | 0.00 | 0.00 | 0.00 | 32 | 1008.8 |
| 20260503234130 | 27 | 26 | 8.0 | 16.1 | 0.00 | 0.00 | 0.00 | 31 | 1008.8 |
| 20260503233628 | 27 | 352 | 8.0 | 12.9 | 0.00 | 0.00 | 0.00 | 32 | 1008.8 |
| 20260503233117 | 27 | 16 | 6.4 | 9.7 | 0.00 | 0.00 | 0.00 | 32 | 1009.0 |
| 20260503232613 | 27 | 9 | 4.8 | 9.7 | 0.00 | 0.00 | 0.00 | 32 | 1009.0 |
| 20260503232114 | 27 | 325 | 6.4 | 8.0 | 0.00 | 0.00 | 0.00 | 31 | 1009.0 |
| 20260503231612 | 26 | 9 | 6.4 | 8.0 | 0.00 | 0.00 | 0.00 | 32 | 1009.3 |
| 20260503231103 | 26 | 355 | 6.4 | 8.0 | 0.00 | 0.00 | 0.00 | 33 | 1009.3 |
| 20260503230604 | 26 | 359 | 6.4 | 8.0 | 0.00 | 0.00 | 0.00 | 33 | 1009.3 |
| 20260503225604 | 26 | 359 | 6.4 | 9.7 | 0.00 | 0.00 | 0.00 | 34 | 1009.4 |
| 20260503225347 | 26 | 9 | 6.4 | 9.7 | 0.00 | 0.00 | 0.00 | 34 | 1009.4 |
| 20260503224603 | 26 | 9 | 6.4 | 11.3 | 0.00 | 0.00 | 0.00 | 37 | 1009.7 |
| 20260503224101 | 26 | 9 | 8.0 | 11.3 | 0.00 | 0.00 | 0.00 | 36 | 1009.7 |
| 20260503223602 | 26 | 4 | 8.0 | 11.3 | 0.00 | 0.00 | 0.00 | 35 | 1009.6 |
| 20260503223101 | 26 | 355 | 8.0 | 11.3 | 0.00 | 0.00 | 0.00 | 35 | 1009.8 |
| 20260503222602 | 25 | 359 | 9.7 | 14.5 | 0.00 | 0.00 | 0.00 | 36 | 1009.8 |
| 20260503222355 | 25 | 9 | 9.7 | 14.5 | 0.00 | 0.00 | 0.00 | 37 | 1010.0 |
| 20260503221557 | 25 | 4 | 9.7 | 14.5 | 0.00 | 0.00 | 0.00 | 36 | 1010.0 |
| 20260503221050 | 25 | 9 | 9.7 | 14.5 | 0.00 | 0.00 | 0.00 | 36 | 1010.0 |
| 20260503220543 | 25 | 19 | 9.7 | 16.1 | 0.00 | 0.00 | 0.00 | 37 | 1010.2 |
| 20260503220042 | 25 | 348 | 9.7 | 16.1 | 0.00 | 0.00 | 0.00 | 38 | 1010.2 |
| 20260503215911 | 25 | 4 | 9.7 | 14.5 | 0.00 | 0.00 | 0.00 | 37 | 1010.2 |
| 20260503214828 | 25 | 342 | 12.9 | 17.7 | 0.00 | 0.00 | 0.00 | 38 | 1010.3 |
| 20260503214036 | 24 | 9 | 12.9 | 17.7 | 0.00 | 0.00 | 0.00 | 39 | 1010.3 |
| 20260503213535 | 24 | 9 | 11.3 | 17.7 | 0.00 | 0.00 | 0.00 | 39 | 1010.5 |
| 20260503213034 | 25 | 9 | 9.7 | 16.1 | 0.00 | 0.00 | 0.00 | 40 | 1010.5 |
| 20260503212535 | 24 | 15 | 9.7 | 16.1 | 0.00 | 0.00 | 0.00 | 41 | 1010.5 |
| 20260503212034 | 24 | 353 | 11.3 | 17.7 | 0.00 | 0.00 | 0.00 | 42 | 1010.7 |
| 20260503211532 | 24 | 25 | 11.3 | 17.7 | 0.00 | 0.00 | 0.00 | 40 | 1010.7 |
| 20260503211318 | 24 | 359 | 11.3 | 17.7 | 0.00 | 0.00 | 0.00 | 39 | 1010.7 |
| 20260503210822 | 24 | 346 | 9.7 | 17.7 | 0.00 | 0.00 | 0.00 | 40 | 1010.8 |
| 20260503210029 | 24 | 30 | 11.3 | 17.7 | 0.00 | 0.00 | 0.00 | 41 | 1010.8 |
| 20260503205529 | 24 | 9 | 9.7 | 17.7 | 0.00 | 0.00 | 0.00 | 41 | 1010.8 |
| 20260503205030 | 23 | 345 | 9.7 | 16.1 | 0.00 | 0.00 | 0.00 | 44 | 1011.1 |
| 20260503204533 | 23 | 354 | 11.3 | 16.1 | 0.00 | 0.00 | 0.00 | 42 | 1011.1 |
| 20260503204047 | 23 | 359 | 11.3 | 17.7 | 0.00 | 0.00 | 0.00 | 42 | 1011.1 |
| 20260503203015 | 23 | 33 | 11.3 | 17.7 | 0.00 | 0.00 | 0.00 | 42 | 1011.3 |
| 20260503202804 | 23 | 9 | 9.7 | 16.1 | 0.00 | 0.00 | 0.00 | 44 | 1011.3 |
| 20260503202011 | 23 | 359 | 9.7 | 16.1 | 0.00 | 0.00 | 0.00 | 43 | 1011.4 |
| 20260503201510 | 23 | 344 | 9.7 | 16.1 | 0.00 | 0.00 | 0.00 | 45 | 1011.4 |
| 20260503201010 | 23 | 4 | 9.7 | 16.1 | 0.00 | 0.00 | 0.00 | 44 | 1011.4 |
| 20260503200510 | 22 | 4 | 8.0 | 14.5 | 0.00 | 0.00 | 0.00 | 44 | 1011.7 |
| 20260503200010 | 22 | 9 | 8.0 | 12.9 | 0.00 | 0.00 | 0.00 | 45 | 1011.7 |
| 20260503195504 | 22 | 9 | 9.7 | 14.5 | 0.00 | 0.00 | 0.00 | 44 | 1011.7 |
| 20260503195022 | 22 | 348 | 9.7 | 14.5 | 0.00 | 0.00 | 0.00 | 46 | 1011.8 |
| 20260503194004 | 22 | 15 | 9.7 | 14.5 | 0.00 | 0.00 | 0.00 | 45 | 1011.8 |
| 20260503193502 | 22 | 19 | 8.0 | 14.5 | 0.00 | 0.00 | 0.00 | 46 | 1012.0 |
| 20260503193003 | 22 | 9 | 8.0 | 14.5 | 0.00 | 0.00 | 0.00 | 46 | 1012.0 |
| 20260503192001 | 21 | 15 | 9.7 | 11.3 | 0.00 | 0.00 | 0.00 | 47 | 1012.3 |
| 20260503191502 | 21 | 333 | 9.7 | 14.5 | 0.00 | 0.00 | 0.00 | 47 | 1012.3 |
| 20260503191006 | 21 | 342 | 8.0 | 14.5 | 0.00 | 0.00 | 0.00 | 47 | 1012.3 |
| 20260503190506 | 21 | 352 | 9.7 | 16.1 | 0.00 | 0.00 | 0.00 | 48 | 1012.3 |
| 20260503190002 | 21 | 338 | 9.7 | 16.1 | 0.00 | 0.00 | 0.00 | 48 | 1012.3 |
| 20260503185501 | 21 | 4 | 9.7 | 17.7 | 0.00 | 0.00 | 0.00 | 49 | 1012.3 |
| 20260503184955 | 20 | 23 | 9.7 | 17.7 | 0.00 | 0.00 | 0.00 | 49 | 1012.6 |
| 20260503184731 | 20 | 350 | 9.7 | 17.7 | 0.00 | 0.00 | 0.00 | 49 | 1012.6 |
| 20260503183948 | 20 | 9 | 11.3 | 17.7 | 0.00 | 0.00 | 0.00 | 50 | 1012.6 |
| 20260503183448 | 20 | 9 | 9.7 | 17.7 | 0.00 | 0.00 | 0.00 | 51 | 1012.7 |
| 20260503182950 | 20 | 333 | 9.7 | 16.1 | 0.00 | 0.00 | 0.00 | 51 | 1012.7 |
| 20260503182729 | 20 | 16 | 9.7 | 16.1 | 0.00 | 0.00 | 0.00 | 52 | 1012.7 |
| 20260503181947 | 20 | 14 | 9.7 | 16.1 | 0.00 | 0.00 | 0.00 | 53 | 1012.8 |
| 20260503181447 | 19 | 343 | 9.7 | 16.1 | 0.00 | 0.00 | 0.00 | 53 | 1012.8 |
| 20260503180946 | 19 | 359 | 8.0 | 16.1 | 0.00 | 0.00 | 0.00 | 53 | 1012.8 |
| 20260503180729 | 19 | 23 | 9.7 | 14.5 | 0.00 | 0.00 | 0.00 | 52 | 1012.9 |
| 20260503175944 | 19 | 23 | 8.0 | 14.5 | 0.00 | 0.00 | 0.00 | 52 | 1012.9 |
| 20260503175438 | 19 | 4 | 8.0 | 16.1 | 0.00 | 0.00 | 0.00 | 53 | 1012.9 |
| 20260503174937 | 18 | 352 | 8.0 | 16.1 | 0.00 | 0.00 | 0.00 | 53 | 1012.9 |
| 20260503174436 | 18 | 350 | 8.0 | 11.3 | 0.00 | 0.00 | 0.00 | 54 | 1012.9 |
| 20260503174218 | 18 | 14 | 9.7 | 11.3 | 0.00 | 0.00 | 0.00 | 54 | 1012.9 |
| 20260503173431 | 18 | 359 | 9.7 | 16.1 | 0.00 | 0.00 | 0.00 | 56 | 1013.0 |
| 20260503173216 | 18 | 359 | 11.3 | 17.7 | 0.00 | 0.00 | 0.00 | 56 | 1013.0 |
| 20260503172433 | 18 | 347 | 9.7 | 17.7 | 0.00 | 0.00 | 0.00 | 58 | 1013.0 |
| 20260503171929 | 18 | 9 | 8.0 | 16.1 | 0.00 | 0.00 | 0.00 | 59 | 1013.1 |
| 20260503171431 | 17 | 354 | 9.7 | 16.1 | 0.00 | 0.00 | 0.00 | 59 | 1013.1 |
| 20260503170929 | 17 | 9 | 8.0 | 16.1 | 0.00 | 0.00 | 0.00 | 59 | 1013.1 |
| 20260503170429 | 17 | 15 | 8.0 | 16.1 | 0.00 | 0.00 | 0.00 | 60 | 1013.2 |